Regional Weather Roundup
Issued by NWS Charleston, WV

Home | Current Version | Previous Version | Text Only | Print | Product List | Glossary Off
Versions: 1 2 3 4 5 6 7 8 9 10 11 12 13 14 15 16 17 18 19 20 21 22 23 24 25 26 27

000
ASUS41 KRLX 251410
RWRRLX
West Virginia Regional Weather Roundup
National Weather Service Charleston WV
1000 AM EDT WED MAY 25 2016

Note: "fair" indicates few or no clouds below 12,000 feet with no
significant weather and/or obstructions to visibility.

WVZ003-251500-
Northern Panhandle of West Virginia

CITY           SKY/WX    TMP DP  RH WIND       PRES   REMARKS
WHEELING         N/A     72  53  51 VRB3      30.18R
$$

WVZ009-251500-
Northwest West Virginia

CITY           SKY/WX    TMP DP  RH WIND       PRES   REMARKS
PARKERSBURG      N/A     70  57  63 VRB3      30.21R
$$

WVZ006-251500-
Western West Virginia

CITY           SKY/WX    TMP DP  RH WIND       PRES   REMARKS
HUNTINGTON       N/A     71  57  61 S6        30.19R
$$

WVZ015-251500-
West Central West Virginia

CITY           SKY/WX    TMP DP  RH WIND       PRES   REMARKS
CHARLESTON       N/A     69  56  62 CALM      30.20R
$$

WVZ022-031-251500-
North Central West Virginia

CITY           SKY/WX    TMP DP  RH WIND       PRES   REMARKS
CLARKSBURG       N/A     69  55  60 S5        30.20S
MORGANTOWN       N/A     72  52  49 SW5       30.21S
$$

WVZ025-035-042-045-251500-
Southern West Virginia

CITY           SKY/WX    TMP DP  RH WIND       PRES   REMARKS
BECKLEY          N/A     70  47  43 SW6       30.27R
LOGAN            N/A     70  55  60 CALM      30.23S
BLUEFIELD        N/A     69  48  47 W6        30.29S
LEWISBURG        N/A     63  51  67 CALM      30.27F
$$

WVZ047-251500-
Northern Mountains of West Virginia

CITY           SKY/WX    TMP DP  RH WIND       PRES   REMARKS
ELKINS           N/A     63  53  70 CALM      30.25F
$$

WVZ052-251500-
Eastern Panhandle of West Virginia

CITY           SKY/WX    TMP DP  RH WIND       PRES   REMARKS
MARTINSBURG      N/A     72  58  61 SE5       30.17S
PETERSBURG       N/A     69  57  66 CALM      30.21F
$$




USA.gov is the U.S. government's official web portal to all federal, state and local government web resources and services.